Location: Newark
(6.1731°S, 35.7419°E)
Time: 19:01:40
(UTC+00:00)

Explorer 11/Cluster Stage 4 - Visible Passes

Search period start: 28 February 2020 00:00
Search period end: 09 March 2020 00:00
Orbit: 467 x 1259 km, 28.8° (Epoch: 28 February)

Date Brightness Start Highest point End Pass type
(mag) Time Alt. Az. Time Alt. Az. Time Alt. Az.
28 Feb 8.4 16:53:26 10° W 17:01:08 44° NNW 17:07:45 14° NE visible
28 Feb 9.6 18:47:28 10° NW 18:49:55 13° NW 18:49:55 13° NW visible
29 Feb 8.6 16:42:49 10° W 16:50:13 38° NNW 16:57:34 10° NNE visible
29 Feb 9.7 18:38:14 10° NW 18:39:58 11° NNW 18:40:13 11° NNW visible
01 Mar 8.9 16:32:20 10° W 16:39:20 32° NNW 16:46:25 10° NNE visible
02 Mar 9.1 16:21:56 10° W 16:28:29 28° NNW 16:35:12 10° NNE visible
03 Mar 9.3 16:11:39 10° WNW 16:17:39 23° NNW 16:23:53 10° NNE visible
04 Mar 8.7 01:34:00 12° NE 01:34:00 12° NE 01:34:39 10° ENE visible
04 Mar 5.6 03:16:45 10° WNW 03:20:47 85° SSW 03:24:25 10° ESE visible
05 Mar 8.8 01:24:19 12° ENE 01:24:19 12° ENE 01:24:52 10° ENE visible
05 Mar 5.8 03:06:29 12° WNW 03:10:13 62° SSW 03:13:53 10° SE visible
06 Mar 9.0 01:14:36 11° E 01:14:36 11° E 01:14:51 10° E visible
06 Mar 6.2 02:56:46 18° W 02:59:38 47° SSW 03:03:17 10° SE visible
07 Mar 6.6 02:47:02 23° W 02:49:03 36° SSW 02:52:39 10° SE visible
08 Mar 7.0 02:37:15 26° WSW 02:38:27 30° SSW 02:41:59 10° SSE visible
